Terug naar catalogus

GOES 1 AKM

ActiefMEO
NORAD 20962·ROCKET BODY·🇺🇸 United States

Gelanceerd Oct 16, 1975 vanaf Cape Canaveral Space Force Station

Loading…

Volgende Passages (komende 24 uur)

TLE

VersSource: Space-Track

Epoch: Sep 14, 2026, 19:32 UTC

1 20962U 75100F   26257.81431752 -.00000155  00000-0  00000-0 0  9997
2 20962   2.0978 248.6614 0266588  99.4972 262.9104  1.01931318137061

Volg GOES 1 AKM in realtime met AllMySat

Download on the App Store